Regional Weather Roundup
Issued by NWS

Home | Current Version | Previous Version | Text Only | Print | Product List | Glossary On
Versions: 1 2 3 4 5 6 7 8 9 10 11 12 13 14 15 16 17 18 19 20 21 22 23 24 25 26 27 28 29 30 31 32 33 34 35 36 37 38 39 40 41 42 43 44 45 46 47 48 49 50
000
ASUS43 KTOP 050808
RWRKS

WEATHER ROUNDUP FOR KANSAS
NATIONAL WEATHER SERVICE GOODLAND KS
300 AM CDT SAT SEP 05 2015

NOTE:  "FAIR" INDICATES FEW OR NO CLOUDS BELOW 12,000 FEET WITH NO
SIGNIFICANT WEATHER AND/OR OBSTRUCTIONS TO VISIBILITY.

KSZ001>006-013>018-027>032-041>047-050900-
NORTHWEST KANSAS

CITY           SKY/WX    TMP DP  RH WIND       PRES   REMARKS
GOODLAND       CLOUDY    74  56  53 S13       29.91S
HAYS           CLEAR     81  59  47 S16G22    29.91S
HILL CITY      CLEAR     78  59  51 S13       29.89S
RUSSELL        PTCLDY    78  63  59 S15       29.90S
$$

KSZ061>065-074>080-084>089-050900-
SOUTHWEST KANSAS

CITY           SKY/WX    TMP DP  RH WIND       PRES   REMARKS
DODGE CITY     PTCLDY    73  58  59 S13       29.95S
ELKHART          N/A     74  56  53 S10         N/A
GARDEN CITY    PTCLDY    73  60  63 S12       29.93F
GREAT BEND     CLEAR     79  63  57 S18       29.93S
LIBERAL        MOCLDY    73  55  53 S7        29.97F
PRATT          CLEAR     73  63  68 MISG      29.96F
$$

KSZ066>073-081>083-090>101-050900-
SOUTHEAST KANSAS

CITY           SKY/WX    TMP DP  RH WIND       PRES   REMARKS
CHANUTE        CLEAR     72  70  93 E5        29.99R
COFFEYVILLE    CLEAR     73  69  87 S5        29.97S
HUTCHINSON     CLEAR     76  67  73 SE12      29.95F
MEDICINE LODGE   N/A     74  66  76 SE7       29.94S
NEWTON         CLEAR     73  64  73 S9        29.99S
PARSONS        CLEAR     76  71  85 SE3       29.99S
WICHITA INTL   CLEAR     75  69  81 S9        29.96S
WICHITA JABRA  CLEAR     76  69  79 S10       29.96S
WICHITA MCCONL CLEAR     75  68  77 SE10      29.96S
WINFIELD       CLEAR     75  69  81 SE7       29.97F
$$

KSZ007>012-019>026-033>040-048>060-102>105-050900-
NORTHEAST KANSAS

CITY           SKY/WX    TMP DP  RH WIND       PRES   REMARKS
CONCORDIA      CLEAR     75  67  76 S17       29.91F
EMPORIA        CLEAR     73  69  87 S12       29.97S
LAWRENCE       CLEAR     71  68  90 E6        29.98S
MANHATTAN      CLEAR     78  69  73 S9        29.94R
MARYSVILLE     CLEAR     73  70  88 S6        29.94S
OLATHE IND     CLEAR     74  69  85 SE7       30.01S
OLATHE EXE     CLEAR     72  69  90 S6        30.00S
SALINA         CLEAR     77  68  73 S13       29.93R
TOPEKA BILLARD CLEAR     76  69  79 SE7       29.97S
TOPEKA FORBES  CLEAR     74  69  85 SE6       29.98S
$$



USA.gov is the U.S. government's official web portal to all federal, state and local government web resources and services.